Chrysoupoli Airport, Greece

8:35 PM EEST on July 29, 2016 (GMT +0300)
Megas Alexandros

Weather History for LGKV - April, 2013

Change the Weather History Date:

Tuesday, April 2, 2013

  Actual Average Record
Temperature  
Mean Temperature 54 °F -  
Max Temperature 64 °F 56 °F 66 °F (2006)
Min Temperature 44 °F 41 °F 37 °F (1998)
Degree Days  
Heating Degree Days 11    
Growing Degree Days 4 (Base 50)    
Moisture  
Dew Point 49 °F    
Average Humidity 75    
Maximum Humidity 88    
Minimum Humidity 56    
Precipitation  
Precipitation 0.00 in - - ()
Sea Level Pressure  
Sea Level Pressure 29.77 in    
Wind  
Wind Speed 7 mph ()    
Max Wind Speed 12 mph    
Max Gust Speed -    
Visibility 6.2 miles    
Events Rain    
Averages and records for this station are not official NWS values.
T = Trace of Precipitation, MM = Missing Value Source: Averaged Metar Reports

Daily Weather History Graph

Daily Weather History Graph

Search for Another Location

Airport or City:

Trip Planner

Search our weather history database for the weather conditions in past years. The results will help you decide how hot, cold, wet, or windy it might be!

Date:

Astronomy

Apr. 02, 2013 Rise Set
Actual Time 7:03 AM EEST 7:47 PM EEST
Civil Twilight 6:35 AM EEST 8:15 PM EEST
Nautical Twilight 6:02 AM EEST 8:48 PM EEST
Astronomical Twilight 5:28 AM EEST 9:22 PM EEST
Moon 1:36 AM EEST (4/2) 11:31 AM EEST (4/2)
Length of Visible Light 13h 39m
Length of Day
12h 44m
Waning Gibbous, 59% of the Moon is Illuminated
Apr 2
Waning Gibbous
Apr 3
Last Quarter
Apr 10
New
Apr 18
First Quarter
Apr 25
Full

Hourly Weather History & Observations

Time (EEST) Temp. Windchill Dew Point Humidity Pressure Visibility Wind Dir Wind Speed Gust Speed Precip Events Conditions
12:50 AM 51.8 °F - 46.4 °F 82% 29.80 in 6.2 mi SW 9.2 mph - N/A   Partly Cloudy
1:50 AM 51.8 °F - 46.4 °F 82% 29.80 in 6.2 mi West 6.9 mph - N/A   Partly Cloudy
2:50 AM 50.0 °F - 44.6 °F 82% 29.80 in 6.2 mi Calm Calm - N/A   Partly Cloudy
3:50 AM 48.2 °F - 44.6 °F 87% 29.83 in 6.2 mi NNE 5.8 mph - N/A   Partly Cloudy
4:50 AM 48.2 °F - 44.6 °F 87% 29.80 in 6.2 mi NE 6.9 mph - N/A   Partly Cloudy
5:20 AM 48.2 °F - 41.0 °F 76% 29.80 in 6.2 mi East 6.9 mph - N/A   Partly Cloudy
5:50 AM 48.2 °F - 39.2 °F 71% 29.80 in 6.2 mi ENE 5.8 mph - N/A   Partly Cloudy
6:20 AM 46.4 °F 44.3 °F 39.2 °F 76% 29.80 in 6.2 mi ENE 4.6 mph - N/A   Partly Cloudy
6:50 AM 44.6 °F 41.4 °F 41.0 °F 87% 29.83 in 6.2 mi ESE 5.8 mph - N/A   Partly Cloudy
7:20 AM 44.6 °F 40.7 °F 41.0 °F 87% 29.83 in 6.2 mi ESE 6.9 mph - N/A   Partly Cloudy
7:50 AM 46.4 °F - 41.0 °F 81% 29.80 in 6.2 mi Calm Calm - N/A   Scattered Clouds
8:20 AM 48.2 °F - 41.0 °F 76% 29.83 in 6.2 mi ENE 4.6 mph - N/A   Mostly Cloudy
8:50 AM 51.8 °F - 44.6 °F 76% 29.80 in 6.2 mi NE 6.9 mph - N/A   Mostly Cloudy
9:20 AM 53.6 °F - 44.6 °F 72% 29.80 in 6.2 mi NE 6.9 mph - N/A   Mostly Cloudy
9:50 AM 55.4 °F - 46.4 °F 72% 29.83 in 6.2 mi NE 9.2 mph - N/A   Mostly Cloudy
10:20 AM 55.4 °F - 46.4 °F 72% 29.83 in 6.2 mi NE 9.2 mph - N/A   Mostly Cloudy
10:50 AM 57.2 °F - 46.4 °F 67% 29.83 in 6.2 mi ENE 9.2 mph - N/A   Mostly Cloudy
11:20 AM 60.8 °F - 46.4 °F 59% 29.83 in 6.2 mi ENE 11.5 mph - N/A   Mostly Cloudy
11:50 AM 62.6 °F - 48.2 °F 59% 29.86 in 6.2 mi ENE 11.5 mph - N/A   Mostly Cloudy
12:20 PM 62.6 °F - 48.2 °F 59% 29.83 in 6.2 mi NE 11.5 mph - N/A   Mostly Cloudy
12:50 PM 64.4 °F - 48.2 °F 56% 29.83 in 6.2 mi East 10.4 mph - N/A   Mostly Cloudy
1:20 PM 64.4 °F - 48.2 °F 56% 29.83 in 6.2 mi East 10.4 mph - N/A   Mostly Cloudy
1:50 PM 64.4 °F - 50.0 °F 59% 29.83 in 6.2 mi East 9.2 mph - N/A   Mostly Cloudy
2:20 PM 64.4 °F - 50.0 °F 59% 29.83 in 6.2 mi East 10.4 mph - N/A   Mostly Cloudy
2:50 PM 62.6 °F - 55.4 °F 77% 29.80 in 6.2 mi East 11.5 mph - N/A   Overcast
3:20 PM 62.6 °F - 55.4 °F 77% 29.77 in 6.2 mi ENE 11.5 mph - N/A   Overcast
3:50 PM 60.8 °F - 53.6 °F 77% 29.77 in 6.2 mi ENE 11.5 mph - N/A   Overcast
4:20 PM 60.8 °F - 53.6 °F 77% 29.74 in 6.2 mi East 10.4 mph - N/A   Overcast
4:50 PM 60.8 °F - 53.6 °F 77% 29.74 in 6.2 mi East 11.5 mph - N/A   Mostly Cloudy
5:20 PM 60.8 °F - 53.6 °F 77% 29.74 in 6.2 mi East 11.5 mph - N/A   Mostly Cloudy
5:50 PM 62.6 °F - 53.6 °F 72% 29.74 in 6.2 mi East 9.2 mph - N/A   Mostly Cloudy
6:20 PM 62.6 °F - 53.6 °F 72% 29.74 in 6.2 mi ENE 8.1 mph - N/A   Mostly Cloudy
6:50 PM 62.6 °F - 53.6 °F 72% 29.71 in 6.2 mi NE 5.8 mph - N/A   Mostly Cloudy
7:20 PM 62.6 °F - 53.6 °F 72% 29.71 in 6.2 mi NE 5.8 mph - N/A   Mostly Cloudy
7:50 PM 60.8 °F - 53.6 °F 77% 29.71 in 6.2 mi NNE 5.8 mph - N/A   Mostly Cloudy
8:20 PM 60.8 °F - 53.6 °F 77% 29.71 in 6.2 mi NE 8.1 mph - N/A   Overcast
8:50 PM 60.8 °F - 51.8 °F 72% 29.71 in 6.2 mi NE 9.2 mph - N/A   Overcast
9:20 PM 60.8 °F - 51.8 °F 72% 29.71 in 6.2 mi NE 8.1 mph - N/A   Overcast
9:50 PM 59.0 °F - 55.4 °F 88% 29.68 in 6.2 mi NE 10.4 mph - N/A Rain Light Rain
10:20 PM 59.0 °F - 55.4 °F 88% 29.68 in 6.2 mi NE 10.4 mph - N/A   Overcast
10:50 PM 59.0 °F - 55.4 °F 88% 29.68 in 6.2 mi ENE 9.2 mph - N/A   Overcast
11:20 PM 59.0 °F - 55.4 °F 88% 29.68 in 6.2 mi NE 9.2 mph - N/A   Overcast
11:50 PM 60.8 °F - 51.8 °F 72% 29.65 in 6.2 mi East 8.1 mph - N/A   Overcast